Wind_Speed
41 42 41 40 40 40 41 41 41 40 39 40 40 40 40 41 40 40 41 41 42 43 44 45 45 47 48 49 50 51 52 53 53 54 54 53 54 54
42 42 42 42 41 42 42 41 41 40 40 40 41 41 41 41 41 42 42 43 44 44 45 46 48 49 50 51 52 53 54 55 55 54 54 54 54 54
42 42 42 41 41 41 42 42 42 41 41 42 42 42 42 42 42 42 43 44 45 45 46 47 49 51 52 54 54 54 55 55 55 54 54 54 54 53
42 43 43 43 42 42 42 42 42 42 42 42 42 43 43 43 43 44 45 46 47 48 49 49 50 52 53 53 54 54 55 55 55 55 54 53 53 52
43 43 43 43 43 42 42 42 43 43 43 42 43 43 43 44 45 46 46 48 49 50 50 50 50 51 52 53 53 54 54 54 54 54 53 53 53 53
43 43 43 43 43 43 43 43 43 44 44 45 45 44 45 45 46 47 47 48 49 50 50 51 51 51 51 52 52 53 53 53 53 52 53 53 54 54
43 43 42 43 44 43 43 44 45 45 45 46 46 46 46 46 47 48 48 48 48 49 50 50 50 50 51 51 51 51 52 52 52 53 53 54 54 55
44 44 44 44 44 44 44 45 45 46 46 46 47 47 48 48 48 49 49 49 49 50 50 50 50 50 51 51 51 51 51 51 52 53 54 55 55 55
44 44 44 44 44 45 46 46 46 47 47 47 47 47 48 48 49 49 49 50 50 50 50 50 50 50 51 51 52 52 52 53 53 54 54 54 55 55
45 45 45 45 46 46 46 46 46 47 48 48 48 48 48 49 49 50 51 51 50 50 50 50 50 51 51 51 52 52 53 54 55 55 54 54 54 54
45 46 46 46 46 46 46 46 46 47 48 48 48 49 50 50 50 50 50 50 50 50 51 52 51 51 51 51 52 53 54 54 54 54 54 53 53 51
45 46 47 46 46 46 46 46 46 46 47 48 48 48 49 49 49 50 51 51 51 51 52 52 52 52 51 51 52 52 53 52 52 52 52 51 50 50
45 45 45 46 45 45 45 45 46 47 47 48 48 48 48 49 50 51 51 52 53 53 53 52 52 52 52 51 50 50 50 50 49 49 50 49 49 48
43 43 43 43 44 44 44 45 45 46 46 47 47 48 48 49 50 51 51 52 52 52 52 52 51 51 51 49 47 47 48 48 48 48 47 47 47 47
41 41 41 42 42 43 43 44 45 45 46 46 47 48 49 50 51 51 51 50 50 50 50 50 50 50 49 48 47 47 48 47 47 47 47 46 45 45
40 40 40 41 41 42 43 44 44 45 46 47 47 48 49 50 50 50 49 49 48 48 49 49 49 48 48 47 48 48 48 48 47 46 46 45 44 44
40 40 40 41 42 42 44 44 44 45 46 47 48 48 48 49 49 49 48 48 47 48 48 48 48 48 48 48 48 49 48 47 47 46 44 43 43 43
39 40 40 41 42 43 44 44 45 45 46 47 48 48 48 48 48 48 48 48 48 48 48 48 48 48 48 49 49 49 47 46 45 45 44 43 42 42
39 40 41 41 42 43 43 44 44 45 45 46 46 47 47 47 47 47 47 48 48 48 48 48 48 48 48 48 47 48 46 45 44 43 43 43 42 41
40 40 40 41 41 42 42 43 43 43 44 45 46 46 47 47 46 46 46 46 46 46 46 47 48 48 47 46 45 45 45 44 43 42 42 41 40 40
39 40 40 40 40 40 41 41 42 43 44 45 45 45 45 45 44 44 44 44 45 45 45 45 45 45 45 44 43 42 42 42 42 41 40 39 38 37
39 40 40 40 41 41 42 42 43 43 43 44 45 45 44 44 43 43 43 44 44 44 44 44 43 43 42 42 41 40 39 39 39 39 39 38 36 35
40 40 42 42 42 43 43 43 43 43 44 44 44 44 43 42 42 43 43 43 43 43 43 42 41 41 41 40 39 38 37 37 37 37 37 37 37 36
Wind_Direction
255 256 258 262 263 263 265 266 268 269 270 272 273 274 276 278 279 280 281 282 283 283 284 284 285 286 286 287 288 289 289 289 289 290 290 290 290 290
257 257 259 262 262 262 265 267 268 269 270 272 273 274 276 278 279 280 281 282 283 284 285 285 286 286 286 287 288 289 290 289 289 290 291 291 291 290
257 258 259 261 263 265 266 268 269 270 272 272 273 274 275 277 278 280 281 282 284 285 286 287 287 287 287 287 288 289 290 290 290 290 291 291 290 289
258 259 260 262 264 266 267 268 269 270 273 273 273 275 276 277 279 281 282 283 285 285 286 287 289 289 290 290 290 290 290 290 290 290 291 290 290 289
260 260 261 263 265 266 268 268 269 271 273 273 273 275 277 278 280 281 283 284 286 287 288 288 289 290 290 291 291 291 290 290 290 291 291 291 290 290
262 262 262 263 265 266 267 268 270 272 273 274 275 276 277 279 280 282 283 285 287 288 288 289 290 290 291 291 292 292 291 291 291 291 291 291 291 291
263 263 264 264 265 266 268 268 270 271 273 274 275 276 277 279 281 283 284 286 287 288 289 291 292 292 292 292 292 292 292 291 291 291 291 291 292 291
262 263 264 265 266 267 267 269 270 271 272 274 275 276 278 280 282 284 285 286 287 288 290 291 292 292 293 293 293 293 293 293 292 292 293 293 292 291
262 263 264 264 266 267 269 270 271 272 272 274 276 278 280 282 283 284 285 287 289 289 290 291 291 292 293 293 293 293 294 295 294 294 294 293 292 291
263 263 264 265 267 268 269 271 271 272 274 275 277 279 281 283 283 285 286 288 289 289 290 290 292 293 293 293 293 294 295 296 296 296 295 294 293 292
263 264 265 266 267 267 269 270 271 273 275 276 278 279 282 283 285 286 286 288 288 288 289 291 291 291 291 291 293 295 295 296 297 297 297 296 294 293
263 264 265 265 267 268 269 270 272 273 275 277 279 280 282 284 285 286 287 288 288 288 290 291 291 291 291 292 293 294 295 297 297 297 298 297 295 294
265 266 266 267 267 267 269 270 272 274 276 278 280 282 283 284 286 287 288 289 289 290 290 291 291 292 293 293 293 294 295 297 297 298 298 297 295 294
265 265 266 267 267 268 270 272 273 275 277 279 280 282 284 285 286 287 289 289 290 291 291 292 292 292 293 294 294 294 296 298 299 299 298 298 296 294
265 265 265 267 268 268 270 272 274 276 277 279 281 283 284 285 286 287 287 288 290 291 291 291 292 293 293 294 295 296 297 298 298 298 298 297 297 295
266 265 266 267 268 269 270 272 274 276 277 279 281 283 283 283 285 286 286 287 288 290 291 291 292 293 294 295 296 297 298 297 297 297 297 296 296 295
266 267 267 269 270 271 272 273 275 276 278 280 282 283 283 284 284 285 286 287 287 288 289 291 292 294 295 296 296 297 297 296 296 296 296 296 296 295
267 268 269 271 272 274 275 275 276 277 278 279 281 282 282 283 284 285 285 286 287 288 289 289 290 292 294 295 296 296 296 296 296 296 296 296 296 296
268 269 271 272 273 275 276 277 277 278 279 280 281 282 283 284 284 284 285 286 287 288 289 289 290 291 292 293 293 294 295 296 296 295 295 296 296 295
269 270 272 273 274 275 277 277 277 279 280 282 283 283 284 285 285 285 286 287 288 289 289 290 291 292 292 293 294 294 295 296 296 296 296 297 297 296
269 270 272 273 275 276 277 278 280 281 283 283 284 285 285 286 285 285 286 287 288 289 290 290 291 292 292 293 294 295 295 296 297 297 297 297 297 297
269 270 271 272 274 276 278 279 281 282 283 284 285 285 285 285 285 286 287 288 288 289 290 290 291 292 293 293 294 295 295 296 297 298 299 299 299 298
269 270 272 273 275 276 278 279 280 282 283 283 283 284 284 284 284 286 287 288 288 289 289 290 291 292 293 293 294 295 295 295 296 297 298 298 299 299
Height
5744 5746 5747 5749 5750 5752 5753 5754 5755 5755 5756 5756 5756 5756 5756 5755 5754 5753 5752 5751 5749 5748 5746 5744 5742 5740 5737 5735 5732 5730 5727 5724 5721 5718 5714 5711 5707 5704
5734 5736 5738 5739 5740 5742 5743 5744 5745 5746 5746 5746 5746 5746 5745 5744 5744 5742 5741 5740 5738 5736 5734 5732 5730 5727 5724 5722 5719 5716 5713 5709 5706 5702 5698 5695 5691 5688
5725 5726 5728 5730 5731 5732 5732 5733 5734 5735 5736 5736 5736 5735 5734 5734 5733 5731 5730 5729 5727 5725 5722 5719 5717 5714 5711 5708 5704 5701 5698 5694 5691 5687 5683 5680 5676 5673
5715 5717 5718 5719 5721 5722 5722 5723 5724 5724 5725 5725 5725 5725 5724 5723 5722 5721 5719 5717 5715 5713 5710 5706 5703 5700 5696 5693 5689 5686 5682 5679 5675 5671 5668 5665 5661 5657
5705 5707 5708 5709 5710 5711 5712 5713 5713 5714 5714 5714 5715 5714 5713 5712 5711 5709 5707 5705 5703 5700 5697 5693 5690 5686 5682 5679 5675 5671 5667 5664 5660 5656 5652 5649 5646 5642
5695 5696 5698 5699 5700 5701 5701 5702 5702 5702 5703 5703 5703 5702 5702 5700 5699 5698 5696 5693 5690 5687 5684 5680 5677 5673 5669 5665 5661 5657 5653 5649 5645 5641 5638 5634 5631 5627
5684 5685 5687 5688 5689 5690 5690 5691 5691 5691 5691 5691 5691 5691 5690 5689 5687 5685 5683 5681 5678 5674 5672 5668 5664 5660 5655 5651 5647 5643 5639 5635 5631 5627 5623 5619 5615 5611
5674 5675 5676 5677 5678 5678 5679 5679 5680 5680 5680 5680 5679 5679 5678 5676 5674 5672 5670 5668 5666 5663 5659 5655 5651 5647 5642 5638 5634 5630 5626 5622 5617 5613 5608 5604 5600 5595
5662 5663 5664 5665 5666 5667 5667 5667 5668 5667 5668 5667 5667 5666 5665 5664 5662 5660 5657 5654 5651 5648 5645 5643 5638 5634 5630 5624 5620 5616 5612 5607 5603 5598 5593 5588 5584 5579
5651 5652 5653 5654 5655 5655 5655 5655 5656 5656 5656 5655 5654 5653 5651 5650 5648 5646 5643 5641 5638 5634 5631 5629 5626 5622 5617 5611 5606 5602 5598 5593 5588 5583 5578 5573 5568 5563
5639 5640 5641 5642 5643 5643 5644 5644 5644 5643 5642 5642 5641 5640 5638 5636 5634 5632 5630 5627 5625 5622 5618 5615 5612 5609 5605 5599 5594 5588 5584 5579 5574 5568 5563 5557 5552 5548
5627 5628 5629 5630 5630 5631 5631 5632 5632 5631 5630 5629 5628 5627 5625 5623 5620 5618 5615 5613 5610 5608 5605 5601 5597 5593 5592 5588 5582 5576 5570 5565 5560 5554 5548 5543 5538 5533
5614 5615 5616 5617 5617 5618 5618 5619 5618 5618 5617 5616 5615 5614 5612 5610 5607 5604 5601 5599 5596 5593 5590 5586 5583 5579 5575 5573 5570 5563 5557 5552 5546 5541 5535 5529 5524 5520
5602 5603 5604 5604 5605 5605 5605 5606 5605 5605 5604 5603 5602 5601 5599 5597 5594 5591 5588 5585 5582 5579 5575 5572 5568 5565 5561 5558 5555 5550 5545 5539 5534 5528 5523 5517 5512 5507
5590 5591 5592 5592 5593 5593 5593 5593 5593 5592 5591 5590 5589 5587 5585 5583 5581 5578 5575 5572 5569 5565 5561 5558 5555 5551 5547 5543 5540 5536 5532 5528 5522 5516 5511 5505 5500 5495
5579 5579 5580 5580 5580 5581 5581 5580 5580 5579 5578 5577 5575 5573 5571 5569 5567 5564 5562 5559 5557 5553 5548 5545 5541 5538 5534 5530 5526 5523 5519 5514 5510 5505 5499 5494 5488 5483
5567 5568 5568 5568 5568 5568 5568 5567 5567 5566 5565 5563 5562 5560 5558 5556 5553 5551 5548 5546 5543 5541 5537 5533 5529 5525 5521 5517 5514 5510 5506 5501 5496 5492 5487 5483 5477 5472
5555 5556 5556 5556 5556 5556 5555 5555 5554 5553 5552 5550 5548 5546 5545 5542 5540 5537 5535 5532 5530 5527 5524 5520 5517 5513 5509 5505 5500 5496 5493 5488 5484 5479 5474 5471 5467 5461
5544 5544 5545 5545 5544 5544 5543 5542 5541 5540 5538 5537 5535 5533 5531 5529 5526 5524 5521 5519 5516 5513 5510 5506 5503 5499 5497 5494 5489 5483 5479 5475 5471 5467 5463 5459 5455 5451
5532 5533 5533 5533 5532 5531 5530 5529 5528 5527 5525 5523 5521 5519 5517 5515 5512 5510 5507 5505 5502 5499 5496 5493 5489 5486 5483 5480 5477 5472 5466 5462 5459 5455 5452 5448 5444 5439
5521 5521 5520 5520 5520 5519 5518 5517 5515 5514 5512 5510 5508 5506 5503 5501 5499 5496 5494 5492 5489 5486 5484 5481 5477 5473 5469 5466 5464 5460 5455 5450 5446 5443 5440 5437 5434 5430
5509 5508 5508 5508 5507 5506 5505 5504 5502 5501 5499 5497 5495 5492 5490 5488 5486 5484 5482 5479 5477 5474 5471 5468 5464 5461 5457 5454 5452 5449 5445 5441 5436 5432 5428 5425 5422 5420
5496 5496 5495 5495 5494 5493 5492 5491 5489 5488 5486 5484 5482 5480 5477 5476 5474 5472 5469 5467 5464 5461 5459 5456 5452 5449 5446 5443 5440 5437 5434 5431 5427 5423 5419 5414 5412 5409